This is the latest recevied weather packets stored in our database for station/object DB0RSR-12. If no packets are shown the sender has not sent any weather packets the latest 1 day(s).
| Time | Temp. | Humidity | Pressure | Rain* | Wind** | Luminosity | Snow |
|---|---|---|---|---|---|---|---|
| 1778115396 | 10.56° C | 88% | 994 hPa | - | - | - | - |
| 1778114496 | 10.56° C | 88% | 994 hPa | - | - | - | - |
| 1778113596 | 10.56° C | 88% | 994 hPa | - | - | - | - |
| 1778112696 | 10.56° C | 86% | 994 hPa | - | - | - | - |
| 1778111796 | 11.11° C | 86% | 994 hPa | - | - | - | - |
| 1778110896 | 11.11° C | 87% | 994 hPa | - | - | - | - |
| 1778109996 | 11.11° C | 88% | 994 hPa | - | - | - | - |
| 1778109096 | 11.11° C | 87% | 994 hPa | - | - | - | - |
| 1778108196 | 11.11° C | 86% | 994 hPa | - | - | - | - |
| 1778098295 | 12.22° C | 87% | 993 hPa | - | - | - | - |
| 1778096495 | 12.22° C | 87% | 993 hPa | - | - | - | - |
| 1778095595 | 12.22° C | 87% | 993 hPa | - | - | - | - |
| 1778094695 | 12.22° C | 86% | 993 hPa | - | - | - | - |
| 1778093795 | 12.22° C | 86% | 993 hPa | - | - | - | - |
| 1778092895 | 12.22° C | 87% | 992 hPa | - | - | - | - |
| 1778091995 | 12.22° C | 86% | 992 hPa | - | - | - | - |
| 1778082094 | 13.33° C | 82% | 992 hPa | - | - | - | - |
| 1778081194 | 13.33° C | 83% | 992 hPa | - | - | - | - |
| 1778080294 | 13.33° C | 83% | 992 hPa | - | - | - | - |
| 1778079394 | 13.33° C | 84% | 992 hPa | - | - | - | - |
| 1778078493 | 13.33° C | 84% | 992 hPa | - | - | - | - |
| 1778077593 | 13.33° C | 83% | 992 hPa | - | - | - | - |
| 1778073992 | 13.33° C | 80% | 992 hPa | - | - | - | - |
| 1778073092 | 13.89° C | 81% | 992 hPa | - | - | - | - |
| 1778064991 | 13.33° C | 81% | 992 hPa | - | - | - | - |
* Rain since midnight (hover to see other rain measurements)
** Current wind speed in m/s (hover to see current wind gust speed)